Juneau, AK

7:49 PM AKDT on August 24, 2016 (GMT -0800)
Juneau International

Weather History for PAJN - June, 2012

Change the Weather History Date:

Wednesday, June 20, 2012

  Actual Average Record
Temperature  
Mean Temperature 56 °F 55 °F  
Max Temperature 62 °F 63 °F 85 °F (2004)
Min Temperature 49 °F 48 °F 37 °F (1973)
Degree Days  
Heating Degree Days 9 10  
Month to date heating degree days 291 219  
Since 1 June heating degree days 291 219  
Since 1 July heating degree days 8475 8255  
Cooling Degree Days 0 0  
Month to date cooling degree days 0 0  
Year to date cooling degree days 0 0  
Since 1 June cooling degree days 0 0  
Growing Degree Days 6 (Base 50)    
Moisture  
Dew Point 49 °F    
Average Humidity 82    
Maximum Humidity 100    
Minimum Humidity 64    
Precipitation  
Precipitation 0.06 in 0.10 in 1.13 in (2014)
Month to date precipitation 3.28 2.12  
Year to date precipitation 23.04 21.72  
Sea Level Pressure  
Sea Level Pressure 30.08 in    
Wind  
Wind Speed 5 mph (SSW)    
Max Wind Speed 13 mph    
Max Gust Speed 16 mph    
Visibility 8 miles    
Events Rain    
T = Trace of Precipitation, MM = Missing Value Source: NWS Daily Summary

Daily Weather History Graph

Daily Weather History Graph

Search for Another Location

Airport or City:

Trip Planner

Search our weather history database for the weather conditions in past years. The results will help you decide how hot, cold, wet, or windy it might be!

Date:

Astronomy

Jun. 20, 2012 Rise Set
Actual Time 3:51 AM AKDT 10:08 PM AKDT
Civil Twilight 2:31 AM AKDT 11:28 PM AKDT
Nautical Twilight Sun does not set Sun does not set
Astronomical Twilight Sun does not set Sun does not set
Moon 5:19 AM AKDT (6/20) 10:29 PM AKDT (6/20)
Length of Visible Light 20h 56m
Length of Day
18h 17m
New Moon, 1% of the Moon is Illuminated
Jun 20
New Moon
Jun 26
First Quarter
Jul 3
Full
Jul 10
Last Quarter
Jul 18
New

Hourly Weather History & Observations

Time (AKDT) Temp. Dew Point Humidity Pressure Visibility Wind Dir Wind Speed Gust Speed Precip Events Conditions
12:42 AM 50.0 °F 48.2 °F 94% 30.12 in 6.0 mi Calm Calm - 0.00 in Rain Light Rain
12:53 AM 50.0 °F 50.0 °F 100% 30.12 in 6.0 mi Calm Calm - 0.01 in Rain Light Rain
1:53 AM 50.0 °F 50.0 °F 100% 30.13 in 5.0 mi Calm Calm - 0.01 in Rain Light Rain
2:24 AM 50.0 °F 50.0 °F 100% 30.12 in 4.0 mi Calm Calm - 0.01 in Rain Light Rain
2:44 AM 50.0 °F 50.0 °F 100% 30.12 in 6.0 mi Calm Calm - 0.01 in Rain Light Rain
2:53 AM 50.0 °F 50.0 °F 100% 30.12 in 5.0 mi Calm Calm - 0.01 in Rain Light Rain
3:23 AM 50.0 °F 50.0 °F 100% 30.12 in 2.0 mi Calm Calm - 0.01 in Rain Light Rain
3:34 AM 50.0 °F 50.0 °F 100% 30.12 in 2.0 mi Calm Calm - 0.03 in Rain Light Rain
3:53 AM 48.9 °F 48.9 °F 100% 30.12 in 2.0 mi Calm Calm - 0.03 in Rain Light Rain
4:48 AM 48.2 °F 48.2 °F 100% 30.12 in 3.0 mi East 4.6 mph - 0.01 in Rain Light Rain
4:53 AM 48.9 °F 48.9 °F 100% 30.12 in 3.0 mi East 4.6 mph - 0.01 in Rain Light Rain
5:35 AM 50.0 °F 48.2 °F 94% 30.12 in 5.0 mi ENE 5.8 mph - 0.00 in Rain Light Rain
5:46 AM 50.0 °F 48.2 °F 94% 30.12 in 6.0 mi East 5.8 mph - 0.00 in   Overcast
5:53 AM 50.0 °F 48.9 °F 96% 30.12 in 6.0 mi ENE 5.8 mph - 0.00 in   Overcast
6:53 AM 51.1 °F 48.9 °F 92% 30.12 in 7.0 mi East 4.6 mph - N/A   Overcast
7:18 AM 50.0 °F 50.0 °F 100% 30.12 in 7.0 mi East 5.8 mph - N/A   Overcast
7:53 AM 51.1 °F 50.0 °F 96% 30.12 in 10.0 mi ESE 4.6 mph - N/A   Overcast
8:53 AM 54.0 °F 50.0 °F 86% 30.11 in 10.0 mi Calm Calm - N/A   Overcast
9:40 AM 53.6 °F 51.8 °F 94% 30.10 in 10.0 mi WSW 6.9 mph - N/A   Overcast
9:53 AM 54.0 °F 51.1 °F 90% 30.11 in 10.0 mi SW 6.9 mph - N/A   Overcast
10:53 AM 55.0 °F 51.1 °F 86% 30.10 in 10.0 mi WSW 11.5 mph - N/A   Overcast
11:53 AM 55.0 °F 50.0 °F 83% 30.09 in 10.0 mi WSW 6.9 mph - N/A   Overcast
12:53 PM 57.0 °F 51.1 °F 81% 30.09 in 10.0 mi SW 8.1 mph - N/A   Overcast
1:53 PM 59.0 °F 50.0 °F 72% 30.07 in 10.0 mi WSW 8.1 mph - N/A   Mostly Cloudy
2:53 PM 60.1 °F 48.9 °F 67% 30.05 in 10.0 mi WSW 12.7 mph - N/A   Mostly Cloudy
3:53 PM 61.0 °F 48.0 °F 62% 30.04 in 10.0 mi WSW 11.5 mph - N/A   Mostly Cloudy
4:53 PM 62.1 °F 48.0 °F 60% 30.01 in 10.0 mi WSW 12.7 mph - N/A   Mostly Cloudy
5:53 PM 62.1 °F 48.0 °F 60% 30.01 in 10.0 mi WSW 10.4 mph - N/A   Mostly Cloudy
6:53 PM 62.1 °F 46.0 °F 56% 30.00 in 10.0 mi WSW 6.9 mph - N/A   Mostly Cloudy
7:53 PM 61.0 °F 46.0 °F 58% 30.00 in 10.0 mi West 6.9 mph - N/A   Mostly Cloudy
8:53 PM 59.0 °F 48.9 °F 69% 29.99 in 10.0 mi Calm Calm - N/A   Mostly Cloudy
9:53 PM 55.0 °F 48.9 °F 80% 29.99 in 10.0 mi Calm Calm - N/A   Mostly Cloudy
10:53 PM 54.0 °F 48.9 °F 83% 29.99 in 10.0 mi Calm Calm - N/A   Overcast
11:53 PM 53.1 °F 48.9 °F 86% 29.99 in 10.0 mi Calm Calm - N/A   Mostly Cloudy